timestamp,surface_pressure_avg,surface_temp_avg,battery_voltage,lat,long
2019-11-15 00:09:01+00:00,365.3779,8.05,12.73,47.84626,-54.09684
2019-11-15 00:19:01+00:00,360.413,8.03,12.73,47.84626,-54.09684
2019-11-15 00:29:01+00:00,359.6146,8.02,12.73,47.84626,-54.09684
2019-11-15 00:39:01+00:00,363.1479,8.05,12.73,47.84626,-54.09684
2019-11-15 00:49:01+00:00,363.6946,8.07,12.73,47.84626,-54.09684
2019-11-15 00:59:01+00:00,358.8346,8.05,12.73,47.84626,-54.09684
2019-11-15 01:09:01+00:00,354.4346,8.07,12.73,47.84626,-54.09684
2019-11-15 01:19:01+00:00,356.2813,8.05,12.73,47.84626,-54.09684
2019-11-15 01:29:01+00:00,352.3929,8.05,12.73,47.84626,-54.09684
2019-11-15 01:39:01+00:00,346.783,8.05,12.73,47.84626,-54.09684
2019-11-15 01:49:01+00:00,344.6697,8.04,12.73,47.84626,-54.09684
2019-11-15 01:59:01+00:00,348.3013,8.03,12.73,47.84626,-54.09684
2019-11-15 02:09:01+00:00,349.2812,8.04,12.73,47.84626,-54.09684
2019-11-15 02:19:01+00:00,340.6230000000001,8.0,12.73,47.84626,-54.09684
2019-11-15 02:29:01+00:00,334.8780000000001,8.0,12.73,47.84626,-54.09684
2019-11-15 02:39:01+00:00,331.2146,8.0,12.73,47.84626,-54.09684
2019-11-15 02:49:01+00:00,323.363,8.0,12.73,47.84626,-54.09684
2019-11-15 02:59:01+00:00,318.938,8.0,12.73,47.84626,-54.09684
2019-11-15 03:09:01+00:00,315.9546,8.0,12.73,47.84626,-54.09684
2019-11-15 03:19:01+00:00,312.1097,8.02,12.73,47.84626,-54.09684
2019-11-15 03:29:01+00:00,303.4396,8.02,12.73,47.84626,-54.09684
2019-11-15 03:39:01+00:00,293.9014,8.01,12.73,47.84626,-54.09684
2019-11-15 03:49:01+00:00,287.5098,8.01,12.73,47.84626,-54.09684
2019-11-15 03:59:01+00:00,279.358,8.01,12.73,47.84626,-54.09684
2019-11-15 04:09:01+00:00,274.9581,8.04,12.73,47.84626,-54.09684
2019-11-15 04:19:01+00:00,268.2897,8.07,12.73,47.84626,-54.09684
2019-11-15 04:29:01+00:00,256.9998,8.06,12.73,47.84626,-54.09684
2019-11-15 04:39:01+00:00,244.9931,8.0,12.73,47.84626,-54.09684
2019-11-15 04:49:01+00:00,242.6414,8.0,12.73,47.84626,-54.09684
2019-11-15 04:59:01+00:00,238.8898,8.01,12.73,47.84626,-54.09684
2019-11-15 05:09:01+00:00,230.4781,8.0,12.73,47.84626,-54.09684
2019-11-15 05:19:01+00:00,223.4081,8.0,12.73,47.84626,-54.09684
2019-11-15 05:29:01+00:00,219.8732,8.0,12.73,47.84626,-54.09684
2019-11-15 05:39:01+00:00,212.9564,8.0,12.73,47.84626,-54.09684
2019-11-15 05:49:01+00:00,203.0931,7.9,12.73,47.84626,-54.09684
2019-11-15 05:59:01+00:00,200.0264,7.7,12.73,47.84626,-54.09684
2019-11-15 06:09:01+00:00,198.1948,7.7,12.73,47.84626,-54.09684
2019-11-15 06:19:01+00:00,191.1281,7.6,12.73,47.84626,-54.09684
2019-11-15 06:29:01+00:00,189.7681,7.66,12.73,47.84626,-54.09684
2019-11-15 06:39:01+00:00,192.3948,7.7,12.73,47.84626,-54.09684
2019-11-15 06:49:01+00:00,193.4181,7.79,12.73,47.84626,-54.09684
2019-11-15 06:59:01+00:00,189.7815,7.8,12.73,47.84626,-54.09684
2019-11-15 07:09:01+00:00,190.3965,7.87,12.73,47.84626,-54.09684
2019-11-15 07:19:01+00:00,198.2781,7.9,12.73,47.84626,-54.09684
2019-11-15 07:29:01+00:00,199.4064,7.9,12.73,47.84626,-54.09684
2019-11-15 07:39:01+00:00,195.9615,7.9,12.73,47.84626,-54.09684
2019-11-15 07:49:01+00:00,197.4448,7.9,12.73,47.84626,-54.09684
2019-11-15 07:59:01+00:00,207.6815,7.9,12.73,47.84626,-54.09684
2019-11-15 08:09:01+00:00,214.5564,7.89,12.73,47.84626,-54.09684
2019-11-15 08:19:01+00:00,216.4214,7.88,12.73,47.84626,-54.09684
2019-11-15 08:29:01+00:00,219.2564,7.87,12.73,47.84626,-54.09684
2019-11-15 08:39:01+00:00,227.4647,7.81,12.73,47.84626,-54.09684
2019-11-15 08:49:01+00:00,228.2198,7.86,12.73,47.84626,-54.09684
2019-11-15 08:59:01+00:00,232.1214,7.87,12.73,47.84626,-54.09684
2019-11-15 09:09:01+00:00,242.7764,7.9,12.73,47.84626,-54.09684
2019-11-15 09:19:01+00:00,246.9631,7.9,12.73,47.84626,-54.09684
2019-11-15 09:29:01+00:00,246.3781,7.91,12.73,47.84626,-54.09684
2019-11-15 09:39:01+00:00,249.5881,7.94,12.73,47.84626,-54.09684
2019-11-15 09:49:01+00:00,257.3114,7.95,12.73,47.84626,-54.09684
2019-11-15 09:59:01+00:00,265.5064,7.95,12.73,47.84626,-54.09684
2019-11-15 10:09:01+00:00,273.1264,8.01,12.73,47.84626,-54.09684
2019-11-15 10:19:01+00:00,277.2397,7.98,12.73,47.84626,-54.09684
2019-11-15 10:29:01+00:00,280.1331,8.0,12.73,47.84626,-54.09684
2019-11-15 10:39:01+00:00,285.1481,8.1,12.73,47.84626,-54.09684
2019-11-15 10:49:01+00:00,288.8247,8.1,12.73,47.84626,-54.09684
2019-11-15 10:59:01+00:00,291.1896,8.1,12.73,47.84626,-54.09684
2019-11-15 11:09:01+00:00,294.6414,8.08,12.73,47.84626,-54.09684
2019-11-15 11:19:01+00:00,304.33299999999997,8.1,12.73,47.84626,-54.09684
2019-11-15 11:29:01+00:00,315.2397,8.28,12.73,47.84626,-54.09684
2019-11-15 11:39:01+00:00,319.2964,8.3,12.73,47.84626,-54.09684
2019-11-15 11:49:01+00:00,325.283,8.3,12.73,47.84626,-54.09684
2019-11-15 11:59:01+00:00,333.653,8.3,12.73,47.84626,-54.09684
2019-11-15 12:09:01+00:00,337.6096,8.3,12.73,47.84626,-54.09684
2019-11-15 12:19:01+00:00,337.3014,8.3,12.81,47.84626,-54.09684
2019-11-15 12:29:01+00:00,340.793,8.29,12.81,47.84626,-54.09684
2019-11-15 12:39:01+00:00,346.0463,8.29,12.81,47.84626,-54.09684
2019-11-15 12:49:01+00:00,345.8463,8.29,12.81,47.84626,-54.09684
2019-11-15 12:59:01+00:00,345.5229,8.28,12.81,47.84626,-54.09684
2019-11-15 13:09:01+00:00,349.1613,8.28,12.81,47.84626,-54.09684
2019-11-15 13:19:01+00:00,353.05300000000005,8.28,13.05,47.84626,-54.09684
2019-11-15 13:29:01+00:00,352.4479,8.29,13.05,47.84626,-54.09684
2019-11-15 13:39:01+00:00,351.7613,8.29,13.05,47.84626,-54.09684
2019-11-15 13:49:01+00:00,351.9963,8.3,13.05,47.84626,-54.09684
2019-11-15 13:59:01+00:00,349.4496,8.3,13.05,47.84626,-54.09684
2019-11-15 14:09:01+00:00,347.093,8.3,13.05,47.84626,-54.09684
2019-11-15 14:19:01+00:00,343.9546,8.3,13.29,47.84626,-54.09684
2019-11-15 14:29:01+00:00,342.5046,8.3,13.29,47.84626,-54.09684
2019-11-15 14:39:01+00:00,338.2580000000001,8.3,13.29,47.84626,-54.09684
2019-11-15 14:49:01+00:00,334.5247,8.3,13.29,47.84626,-54.09684
2019-11-15 14:59:01+00:00,328.7697,8.3,13.29,47.84626,-54.09684
2019-11-15 15:09:01+00:00,324.053,8.3,13.29,47.84626,-54.09684
2019-11-15 15:19:01+00:00,318.70799999999997,8.3,13.21,47.84626,-54.09684
2019-11-15 15:29:01+00:00,310.2164,8.3,13.21,47.84626,-54.09684
2019-11-15 15:39:01+00:00,308.5413,8.3,13.21,47.84626,-54.09684
2019-11-15 15:49:01+00:00,302.08799999999997,8.3,13.21,47.84626,-54.09684
2019-11-15 15:59:01+00:00,290.7897,8.3,13.21,47.84626,-54.09684
2019-11-15 16:09:01+00:00,283.2947,8.3,13.21,47.84626,-54.09684
2019-11-15 16:19:01+00:00,282.5031,8.3,13.29,47.84626,-54.09684
2019-11-15 16:29:01+00:00,271.5664,8.3,13.29,47.84626,-54.09684
2019-11-15 16:39:01+00:00,256.6148,8.3,13.29,47.84626,-54.09684
2019-11-15 16:49:01+00:00,250.9314,8.3,13.29,47.84626,-54.09684
2019-11-15 16:59:01+00:00,248.1314,8.3,13.29,47.84626,-54.09684
2019-11-15 17:09:01+00:00,233.6931,8.3,13.29,47.84626,-54.09684
2019-11-15 17:19:01+00:00,220.8548,8.2,13.05,47.84626,-54.09684
2019-11-15 17:29:01+00:00,216.5331,8.2,13.05,47.84626,-54.09684
2019-11-15 17:39:01+00:00,208.7032,8.2,13.05,47.84626,-54.09684
2019-11-15 17:49:01+00:00,193.1981,8.2,13.05,47.84626,-54.09684
2019-11-15 17:59:01+00:00,186.3198,8.11,13.05,47.84626,-54.09684
2019-11-15 18:09:01+00:00,188.7481,8.2,13.05,47.84626,-54.09684
2019-11-15 18:19:01+00:00,179.3148,8.28,12.97,47.84626,-54.09684
2019-11-15 18:29:01+00:00,165.4532,8.3,12.97,47.84626,-54.09684
2019-11-15 18:39:01+00:00,163.8399,8.3,12.97,47.84626,-54.09684
2019-11-15 18:49:01+00:00,164.0115,8.3,12.97,47.84626,-54.09684
2019-11-15 18:59:01+00:00,156.7182,8.3,12.97,47.84626,-54.09684
2019-11-15 19:09:01+00:00,154.3665,8.3,12.97,47.84626,-54.09684
2019-11-15 19:19:01+00:00,162.2849,8.3,12.97,47.84626,-54.09684
2019-11-15 19:29:01+00:00,162.4998,8.35,12.97,47.84626,-54.09684
2019-11-15 19:39:01+00:00,155.1965,8.34,12.97,47.84626,-54.09684
2019-11-15 19:49:01+00:00,159.2698,8.3,12.97,47.84626,-54.09684
2019-11-15 19:59:01+00:00,167.2015,8.3,12.97,47.84626,-54.09684
2019-11-15 20:09:01+00:00,170.1964,8.37,12.97,47.84626,-54.09684
2019-11-15 20:19:01+00:00,171.8232,8.36,12.81,47.84626,-54.09684
2019-11-15 20:29:01+00:00,178.0081,8.3,12.81,47.84626,-54.09684
2019-11-15 20:39:01+00:00,186.9215,8.35,12.81,47.84626,-54.09684
2019-11-15 20:49:01+00:00,187.6031,8.35,12.81,47.84626,-54.09684
2019-11-15 20:59:01+00:00,189.3981,8.37,12.81,47.84626,-54.09684
2019-11-15 21:09:01+00:00,201.2215,8.3,12.81,47.84626,-54.09684
2019-11-15 21:19:01+00:00,212.9098,8.3,12.73,47.84626,-54.09684
2019-11-15 21:29:01+00:00,215.1981,8.3,12.73,47.84626,-54.09684
2019-11-15 21:39:01+00:00,219.2298,8.3,12.73,47.84626,-54.09684
2019-11-15 21:49:01+00:00,223.3881,8.29,12.73,47.84626,-54.09684
2019-11-15 21:59:01+00:00,222.4381,8.28,12.73,47.84626,-54.09684
2019-11-15 22:09:01+00:00,226.7581,8.26,12.73,47.84626,-54.09684
2019-11-15 22:19:01+00:00,237.6031,8.2,12.73,47.84626,-54.09684
2019-11-15 22:29:01+00:00,245.6948,8.23,12.73,47.84626,-54.09684
2019-11-15 22:39:01+00:00,251.4865,8.2,12.73,47.84626,-54.09684
2019-11-15 22:49:01+00:00,260.7997,8.1,12.73,47.84626,-54.09684
2019-11-15 22:59:01+00:00,268.0097,8.1,12.73,47.84626,-54.09684
2019-11-15 23:09:01+00:00,273.173,8.09,12.73,47.84626,-54.09684
2019-11-15 23:19:01+00:00,278.7147,8.0,12.73,47.84626,-54.09684
2019-11-15 23:29:01+00:00,287.5613,8.0,12.73,47.84626,-54.09684
2019-11-15 23:39:01+00:00,294.5114,8.0,12.73,47.84626,-54.09684
2019-11-15 23:49:01+00:00,297.0514,8.0,12.73,47.84626,-54.09684
2019-11-15 23:59:01+00:00,304.1097,7.97,12.73,47.84626,-54.09684
